| time (UTC) | temp F | wind direction | speed MPH | gust MPH | rain 1hr in | rain 24hr in | rain mn in | humidity % | barometer mb |
| 20260902170039 | 84 | 282 | 2.0 | 3.0 | 0.00 | 0.13 | 0.11 | 84 | 1015.7 |
| 20260902164540 | 83 | 0 | 0.0 | 2.0 | 0.00 | 0.13 | 0.11 | 86 | 1015.9 |
| 20260902163036 | 83 | 205 | 1.0 | 2.0 | 0.08 | 0.13 | 0.11 | 85 | 1015.9 |
| 20260902161541 | 83 | 0 | 0.0 | 2.0 | 0.10 | 0.13 | 0.11 | 86 | 1015.9 |
| 20260902160038 | 83 | 0 | 0.0 | 2.0 | 0.10 | 0.13 | 0.11 | 85 | 1016.1 |
| 20260902154535 | 82 | 0 | 1.0 | 4.0 | 0.10 | 0.13 | 0.11 | 84 | 1016.3 |
| 20260902153036 | 83 | 9 | 0.0 | 3.0 | 0.02 | 0.05 | 0.03 | 83 | 1016.5 |
| 20260902151536 | 83 | 12 | 1.0 | 4.0 | 0.00 | 0.03 | 0.01 | 81 | 1016.5 |
| 20260902150038 | 83 | 0 | 0.0 | 2.0 | 0.00 | 0.03 | 0.01 | 81 | 1016.5 |
| 20260902144537 | 83 | 0 | 0.0 | 2.0 | 0.00 | 0.03 | 0.01 | 80 | 1016.3 |
| 20260902143038 | 83 | 0 | 0.0 | 2.0 | 0.00 | 0.03 | 0.01 | 80 | 1016.4 |
| 20260902141538 | 84 | 15 | 0.0 | 6.0 | 0.00 | 0.03 | 0.01 | 81 | 1016.2 |
| 20260902140040 | 83 | 65 | 2.0 | 7.0 | 0.00 | 0.03 | 0.01 | 84 | 1016.2 |
| 20260902134538 | 82 | 339 | 5.0 | 10.0 | 0.00 | 0.03 | 0.01 | 85 | 1016.2 |
| 20260902133035 | 82 | 317 | 3.0 | 8.0 | 0.00 | 0.03 | 0.01 | 89 | 1016.0 |
| 20260902131538 | 81 | 360 | 2.0 | 5.0 | 0.00 | 0.03 | 0.01 | 91 | 1015.9 |
| 20260902130042 | 80 | 41 | 1.0 | 5.0 | 0.00 | 0.03 | 0.01 | 91 | 1016.0 |
| 20260902124539 | 79 | 317 | 2.0 | 5.0 | 0.00 | 0.03 | 0.01 | 91 | 1016.1 |
| 20260902123035 | 78 | 21 | 0.0 | 2.0 | 0.00 | 0.03 | 0.01 | 91 | 1015.9 |
| 20260902121538 | 78 | 5 | 1.0 | 3.0 | 0.00 | 0.03 | 0.01 | 91 | 1015.8 |
| 20260902120039 | 77 | 348 | 1.0 | 3.0 | 0.00 | 0.03 | 0.01 | 91 | 1015.7 |
| 20260902114602 | 77 | 0 | 0.0 | 2.0 | 0.00 | 0.03 | 0.01 | 91 | 1015.7 |
| 20260902113047 | 76 | 314 | 1.0 | 3.0 | 0.00 | 0.03 | 0.01 | 91 | 1015.7 |
| 20260902111537 | 76 | 0 | 0.0 | 3.0 | 0.00 | 0.03 | 0.01 | 91 | 1015.6 |
| 20260902110040 | 76 | 333 | 1.0 | 3.0 | 0.00 | 0.03 | 0.01 | 91 | 1015.3 |
| 20260902104539 | 76 | 303 | 1.0 | 2.0 | 0.00 | 0.03 | 0.01 | 91 | 1015.2 |
| 20260902103035 | 76 | 0 | 0.0 | 2.0 | 0.00 | 0.03 | 0.01 | 91 | 1015.1 |
| 20260902101534 | 76 | 303 | 0.0 | 2.0 | 0.00 | 0.03 | 0.01 | 91 | 1015.1 |
| 20260902100038 | 76 | 0 | 0.0 | 2.0 | 0.00 | 0.03 | 0.01 | 91 | 1015.0 |
| 20260902094538 | 76 | 0 | 0.0 | 0.0 | 0.00 | 0.03 | 0.01 | 91 | 1015.1 |
| 20260902093035 | 76 | 303 | 0.0 | 2.0 | 0.00 | 0.03 | 0.01 | 91 | 1015.0 |
| 20260902091547 | 76 | 0 | 0.0 | 0.0 | 0.00 | 0.03 | 0.01 | 91 | 1015.0 |
| 20260902090050 | 76 | 0 | 0.0 | 1.0 | 0.00 | 0.03 | 0.01 | 90 | 1014.7 |
| 20260902084538 | 76 | 0 | 0.0 | 0.0 | 0.00 | 0.03 | 0.01 | 90 | 1014.6 |
| 20260902083034 | 77 | 0 | 0.0 | 2.0 | 0.00 | 0.03 | 0.01 | 90 | 1014.4 |
| 20260902081540 | 77 | 303 | 0.0 | 2.0 | 0.00 | 0.03 | 0.01 | 90 | 1014.7 |
| 20260902080037 | 77 | 303 | 0.0 | 2.0 | 0.00 | 0.03 | 0.01 | 90 | 1014.5 |
| 20260902074547 | 77 | 0 | 0.0 | 2.0 | 0.00 | 0.03 | 0.01 | 90 | 1014.6 |
| 20260902073038 | 77 | 303 | 1.0 | 2.0 | 0.00 | 0.03 | 0.01 | 90 | 1014.8 |
| 20260902071534 | 77 | 303 | 1.0 | 3.0 | 0.00 | 0.03 | 0.01 | 90 | 1014.9 |
| 20260902070039 | 77 | 0 | 0.0 | 2.0 | 0.00 | 0.03 | 0.01 | 90 | 1015.0 |
| 20260902064539 | 76 | 331 | 1.0 | 4.0 | 0.00 | 0.03 | 0.01 | 90 | 1015.1 |
| 20260902063035 | 77 | 30 | 0.0 | 1.0 | 0.00 | 0.03 | 0.01 | 90 | 1015.1 |
| 20260902061543 | 77 | 0 | 0.0 | 2.0 | 0.00 | 0.03 | 0.01 | 90 | 1015.0 |
| 20260902060051 | 77 | 0 | 0.0 | 0.0 | 0.00 | 0.03 | 0.01 | 89 | 1015.1 |
| 20260902054541 | 77 | 0 | 0.0 | 2.0 | 0.00 | 0.03 | 0.01 | 89 | 1015.3 |
| 20260902053040 | 77 | 30 | 0.0 | 2.0 | 0.00 | 0.03 | 0.01 | 89 | 1015.4 |
| 20260902051540 | 77 | 30 | 0.0 | 2.0 | 0.01 | 0.03 | 0.01 | 89 | 1015.3 |
| 20260902050043 | 77 | 30 | 0.0 | 2.0 | 0.01 | 0.03 | 0.01 | 89 | 1015.3 |
| 20260902044539 | 77 | 30 | 0.0 | 2.0 | 0.01 | 0.03 | 0.01 | 89 | 1015.2 |
| 20260902043037 | 77 | 30 | 1.0 | 2.0 | 0.01 | 0.03 | 0.01 | 89 | 1015.2 |
| 20260902041539 | 77 | 0 | 0.0 | 0.0 | 0.00 | 0.02 | 0.00 | 89 | 1015.3 |
| 20260902040040 | 77 | 0 | 0.0 | 2.0 | 0.00 | 0.02 | 0.00 | 89 | 1015.3 |
| 20260902034540 | 77 | 30 | 1.0 | 2.0 | 0.00 | 0.02 | 0.02 | 88 | 1015.6 |
| 20260902033034 | 77 | 0 | 0.0 | 0.0 | 0.00 | 0.02 | 0.02 | 88 | 1015.8 |
| 20260902031538 | 77 | 0 | 0.0 | 0.0 | 0.00 | 0.02 | 0.02 | 88 | 1016.3 |
| 20260902030035 | 78 | 0 | 0.0 | 1.0 | 0.00 | 0.02 | 0.02 | 88 | 1016.3 |
| 20260902024538 | 78 | 30 | 0.0 | 2.0 | 0.00 | 0.02 | 0.02 | 88 | 1016.3 |
| 20260902023042 | 78 | 30 | 0.0 | 1.0 | 0.00 | 0.02 | 0.02 | 88 | 1016.1 |
| 20260902021539 | 78 | 0 | 0.0 | 2.0 | 0.00 | 0.02 | 0.02 | 87 | 1016.2 |
| 20260902020036 | 78 | 30 | 0.0 | 2.0 | 0.00 | 0.02 | 0.02 | 87 | 1016.3 |
| 20260902014541 | 78 | 0 | 0.0 | 2.0 | 0.00 | 0.02 | 0.02 | 87 | 1016.2 |
| 20260902013041 | 78 | 30 | 1.0 | 2.0 | 0.00 | 0.02 | 0.02 | 87 | 1016.1 |
| 20260902011539 | 78 | 0 | 0.0 | 2.0 | 0.01 | 0.02 | 0.02 | 86 | 1016.1 |
| 20260902010036 | 78 | 0 | 0.0 | 2.0 | 0.01 | 0.02 | 0.02 | 85 | 1016.0 |
| 20260902004538 | 78 | 352 | 0.0 | 2.0 | 0.02 | 0.02 | 0.02 | 84 | 1015.7 |
| 20260902003043 | 78 | 0 | 0.0 | 2.0 | 0.02 | 0.02 | 0.02 | 83 | 1016.0 |
| 20260902001550 | 79 | 0 | 0.0 | 3.0 | 0.01 | 0.01 | 0.01 | 82 | 1016.1 |
| 20260902000041 | 80 | 121 | 0.0 | 4.0 | 0.01 | 0.01 | 0.01 | 81 | 1015.9 |
| 20260901234537 | 81 | 26 | 1.0 | 4.0 | 0.00 | 0.00 | 0.00 | 80 | 1016.0 |
| 20260901233053 | 82 | 148 | 2.0 | 10.0 | 0.00 | 0.00 | 0.00 | 80 | 1015.8 |
| 20260901231537 | 83 | 352 | 4.0 | 10.0 | 0.00 | 0.00 | 0.00 | 80 | 1015.8 |
| 20260901230037 | 83 | 360 | 3.0 | 8.0 | 0.00 | 0.00 | 0.00 | 79 | 1015.8 |
| 20260901224537 | 83 | 44 | 2.0 | 7.0 | 0.00 | 0.00 | 0.00 | 78 | 1015.7 |
| 20260901223034 | 84 | 360 | 0.0 | 6.0 | 0.00 | 0.00 | 0.00 | 78 | 1015.5 |
| 20260901221539 | 84 | 360 | 2.0 | 6.0 | 0.00 | 0.00 | 0.00 | 77 | 1015.4 |
| 20260901220105 | 84 | 60 | 3.0 | 9.0 | 0.00 | 0.00 | 0.00 | 76 | 1015.2 |
| 20260901214538 | 84 | 84 | 2.0 | 6.0 | 0.00 | 0.00 | 0.00 | 76 | 1015.3 |
| 20260901213040 | 84 | 130 | 1.0 | 9.0 | 0.00 | 0.00 | 0.00 | 75 | 1015.3 |
| 20260901211539 | 84 | 0 | 1.0 | 4.0 | 0.00 | 0.00 | 0.00 | 75 | 1015.1 |
| 20260901210041 | 84 | 46 | 2.0 | 11.0 | 0.00 | 0.00 | 0.00 | 75 | 1015.3 |
| 20260901204534 | 85 | 42 | 2.0 | 8.0 | 0.00 | 0.00 | 0.00 | 75 | 1015.5 |
| 20260901203042 | 85 | 49 | 1.0 | 8.0 | 0.00 | 0.00 | 0.00 | 76 | 1015.6 |
| 20260901201539 | 85 | 65 | 2.0 | 9.0 | 0.00 | 0.00 | 0.00 | 76 | 1015.7 |
| 20260901200037 | 86 | 63 | 1.0 | 4.0 | 0.00 | 0.00 | 0.00 | 77 | 1015.8 |
| 20260901194540 | 85 | 5 | 2.0 | 6.0 | 0.00 | 0.00 | 0.00 | 76 | 1015.9 |
| 20260901193037 | 85 | 96 | 1.0 | 6.0 | 0.00 | 0.00 | 0.00 | 77 | 1016.0 |
| 20260901191537 | 85 | 0 | 0.0 | 2.0 | 0.00 | 0.00 | 0.00 | 77 | 1016.0 |
| 20260901190036 | 84 | 63 | 3.0 | 9.0 | 0.00 | 0.00 | 0.00 | 76 | 1016.1 |
| 20260901184534 | 84 | 340 | 1.0 | 4.0 | 0.00 | 0.00 | 0.00 | 76 | 1016.2 |
| 20260901183036 | 83 | 55 | 2.0 | 6.0 | 0.00 | 0.00 | 0.00 | 78 | 1016.3 |
| 20260901181540 | 83 | 360 | 2.0 | 5.0 | 0.00 | 0.00 | 0.00 | 78 | 1016.5 |
| 20260901180037 | 83 | 13 | 1.0 | 9.0 | 0.00 | 0.00 | 0.00 | 79 | 1016.6 |
| 20260901174534 | 83 | 9 | 4.0 | 10.0 | 0.00 | 0.00 | 0.00 | 79 | 1016.8 |
| 20260901173036 | 83 | 28 | 3.0 | 6.0 | 0.00 | 0.00 | 0.00 | 79 | 1017.1 |
| 20260901171547 | 83 | 304 | 1.0 | 3.0 | 0.00 | 0.00 | 0.00 | 78 | 1017.2 |